Location: Oberkirch
(48.5323°N, 8.0787°E)
Time: 01:21:00
(UTC+00:00)

CUTE 1.7 + AOD 2 - Pass Details

Date: 17 March 2026
Orbit: 535 x 545 km, 97.8° (Epoch: 14 April)

Event Time Altitude Azimuth Distance (km) Brightness Sun altitude
Rises 03:57:28 0° 14° (NNE) 2,721 ? -17.1°
Reaches altitude 10° 03:59:36 10° 15° (NNE) 1,825 ? -16.8°
Maximum altitude 04:03:33 82° 103° (ESE) 557 ? -16.1°
Drops below altitude 10° 04:07:29 10° 192° (SSW) 1,812 ? -15.5°
Enters shadow 04:08:01 - 192° (SSW) 2,039 ? -15.4°
